• In Italy
  • List of Countries
  • For 7 days
  • Water Temperature
  • Satellite Maps
  • Weather Map
  • Weather Widgets
  • user-avatar
    Login

    Hourly Weather Northallerton

    Today, 19 January, Friday

    Time Temperature Precipitation Wind Pressure Humidity
    00:00 -1°C° 0 mm 4 mps 747 mmHg 88%
    01:00 -1°C° 0 mm 4 mps 747 mmHg 87%
    02:00 -1°C° 0 mm 4 mps 747 mmHg 87%
    03:00 -1°C° 0 mm 4 mps 747 mmHg 87%
    04:00 -1°C° 0 mm 4 mps 747 mmHg 86%
    05:00 -1°C° 0 mm 4 mps 747 mmHg 86%
    06:00 -1°C° 0 mm 4 mps 747 mmHg 85%
    07:00 -1°C° 0 mm 4 mps 747 mmHg 85%
    08:00 -1°C° 0 mm 5 mps 747 mmHg 84%
    09:00 -1°C° 0 mm 5 mps 747 mmHg 84%
    10:00 0°C° 0 mm 5 mps 747 mmHg 84%
    11:00 0°C° 0 mm 5 mps 747 mmHg 83%
    12:00 +1°C° 0 mm 5 mps 747 mmHg 83%
    13:00 +1°C° 0.1 mm 5 mps 747 mmHg 82%
    14:00 +1°C° 0.1 mm 6 mps 747 mmHg 80%
    15:00 -1°C° 0.1 mm 6 mps 747 mmHg 79%
    16:00 0°C° 0 mm 5 mps 747 mmHg 80%
    17:00 -1°C° 0 mm 5 mps 747 mmHg 81%
    18:00 -1°C° 0 mm 5 mps 748 mmHg 82%
    19:00 -1°C° 0 mm 5 mps 748 mmHg 82%
    20:00 -1°C° 0 mm 5 mps 748 mmHg 82%
    21:00 -1°C° 0 mm 5 mps 748 mmHg 82%
    22:00 -1°C° 0 mm 5 mps 748 mmHg 83%
    23:00 -1°C° 0 mm 5 mps 748 mmHg 84%

    Tomorrow, 20 January, Saturday

    Time Temperature Precipitation Wind Pressure Humidity
    00:00 -1°C° 0 mm 4 mps 748 mmHg 85%
    01:00 -1°C° 0 mm 4 mps 747 mmHg 86%
    02:00 -1°C° 0 mm 4 mps 747 mmHg 87%
    03:00 -1°C° 0 mm 4 mps 747 mmHg 87%
    04:00 -1°C° 0 mm 4 mps 747 mmHg 88%
    05:00 -1°C° 0 mm 4 mps 746 mmHg 88%
    06:00 0°C° 0 mm 3 mps 746 mmHg 89%
    07:00 0°C° 0 mm 3 mps 747 mmHg 89%
    08:00 0°C° 0 mm 3 mps 747 mmHg 88%
    09:00 0°C° 0 mm 3 mps 747 mmHg 88%
    10:00 +1°C° 0 mm 3 mps 747 mmHg 87%
    11:00 0°C° 0 mm 4 mps 748 mmHg 87%
    12:00 +1°C° 0 mm 4 mps 748 mmHg 86%
    13:00 +1°C° 0 mm 4 mps 749 mmHg 85%
    14:00 +1°C° 0 mm 3 mps 749 mmHg 85%
    15:00 +1°C° 0 mm 3 mps 750 mmHg 84%
    16:00 0°C° 0 mm 3 mps 750 mmHg 85%
    17:00 -1°C° 0 mm 3 mps 751 mmHg 85%
    18:00 -2°C° 0 mm 3 mps 752 mmHg 85%
    19:00 -2°C° 0 mm 2 mps 752 mmHg 84%
    20:00 -2°C° 0 mm 2 mps 753 mmHg 82%
    21:00 -3°C° 0 mm 2 mps 753 mmHg 81%
    22:00 0°C° 0 mm 1 mps 754 mmHg 80%
    23:00 0°C° 0 mm 1 mps 754 mmHg 79%

    Day after tomorrow, 21 January, Sunday

    Time Temperature Precipitation Wind Pressure Humidity
    00:00 +1°C° 0 mm 1 mps 754 mmHg 77%
    01:00 +1°C° 0 mm 1 mps 753 mmHg 79%
    02:00 -1°C° 0 mm 2 mps 753 mmHg 80%
    03:00 -1°C° 0 mm 3 mps 752 mmHg 81%
    04:00 0°C° 0.5 mm 3 mps 752 mmHg 83%
    05:00 -1°C° 0.5 mm 4 mps 751 mmHg 84%
    06:00 -1°C° 0.5 mm 5 mps 751 mmHg 86%
    07:00 -2°C° 0.6 mm 6 mps 750 mmHg 88%
    08:00 -2°C° 0.6 mm 7 mps 750 mmHg 89%
    09:00 -2°C° 0.6 mm 8 mps 749 mmHg 91%
    10:00 -1°C° 0.6 mm 7 mps 749 mmHg 93%
    11:00 -1°C° 0.6 mm 6 mps 748 mmHg 94%
    12:00 -1°C° 0.6 mm 6 mps 748 mmHg 96%
    13:00 +1°C° 0.5 mm 5 mps 747 mmHg 97%
    14:00 +1°C° 0.5 mm 5 mps 746 mmHg 98%
    15:00 +3°C° 0.5 mm 4 mps 746 mmHg 99%
    16:00 +3°C° 0.1 mm 5 mps 745 mmHg 99%
    17:00 +5°C° 0.1 mm 5 mps 745 mmHg 99%
    18:00 +6°C° 0.1 mm 5 mps 744 mmHg 99%
    19:00 +7°C° 0.3 mm 6 mps 745 mmHg 98%
    20:00 +7°C° 0.3 mm 6 mps 745 mmHg 97%
    21:00 +8°C° 0.3 mm 7 mps 745 mmHg 96%
    22:00 +6°C° 0 mm 7 mps 745 mmHg 95%
    23:00 +7°C° 0 mm 6 mps 746 mmHg 94%

    22 January, Monday

    Time Temperature Precipitation Wind Pressure Humidity
    00:00 +5°C° 0 mm 6 mps 746 mmHg 93%
    01:00 +5°C° 0 mm 5 mps 747 mmHg 93%
    02:00 +4°C° 0 mm 4 mps 747 mmHg 93%
    03:00 +4°C° 0 mm 3 mps 747 mmHg 92%
    04:00 +3°C° 0 mm 3 mps 747 mmHg 93%
    05:00 +3°C° 0 mm 3 mps 747 mmHg 93%
    06:00 +3°C° 0 mm 3 mps 747 mmHg 93%
    07:00 +3°C° 0 mm 3 mps 748 mmHg 93%
    08:00 +3°C° 0 mm 3 mps 748 mmHg 92%
    09:00 +4°C° 0 mm 4 mps 748 mmHg 92%
    10:00 +4°C° 0 mm 4 mps 749 mmHg 89%
    11:00 +5°C° 0 mm 5 mps 749 mmHg 87%
    12:00 +5°C° 0 mm 5 mps 749 mmHg 85%
    13:00 +5°C° 0 mm 5 mps 750 mmHg 85%
    14:00 +5°C° 0 mm 5 mps 750 mmHg 85%
    15:00 +5°C° 0 mm 5 mps 750 mmHg 85%
    16:00 +5°C° 0 mm 5 mps 751 mmHg 85%
    17:00 +3°C° 0 mm 5 mps 751 mmHg 86%
    18:00 +2°C° 0 mm 5 mps 751 mmHg 87%
    19:00 +3°C° 0 mm 5 mps 752 mmHg 87%
    20:00 +3°C° 0 mm 5 mps 752 mmHg 87%
    21:00 +3°C° 0 mm 5 mps 752 mmHg 87%
    22:00 +3°C° 0 mm 6 mps 751 mmHg 88%
    23:00 +4°C° 0 mm 7 mps 751 mmHg 88%

    23 January, Tuesday

    Time Temperature Precipitation Wind Pressure Humidity
    00:00 +4°C° 0 mm 8 mps 750 mmHg 89%
    01:00 +5°C° 0.2 mm 8 mps 750 mmHg 87%
    02:00 +5°C° 0.2 mm 8 mps 750 mmHg 85%
    03:00 +6°C° 0.2 mm 9 mps 750 mmHg 83%
    04:00 +5°C° 0 mm 8 mps 751 mmHg 84%
    05:00 +5°C° 0 mm 7 mps 752 mmHg 85%
    06:00 +4°C° 0 mm 7 mps 753 mmHg 85%
    07:00 +4°C° 0 mm 6 mps 754 mmHg 86%
    08:00 +5°C° 0 mm 5 mps 754 mmHg 87%
    09:00 +3°C° 0 mm 5 mps 755 mmHg 88%
    10:00 +5°C° 0 mm 5 mps 755 mmHg 85%
    11:00 +6°C° 0 mm 5 mps 755 mmHg 82%
    12:00 +7°C° 0 mm 5 mps 756 mmHg 79%
    13:00 +7°C° 0 mm 5 mps 755 mmHg 81%
    14:00 +8°C° 0 mm 5 mps 755 mmHg 82%
    15:00 +8°C° 0 mm 6 mps 754 mmHg 83%
    16:00 +8°C° 0 mm 7 mps 754 mmHg 84%
    17:00 +9°C° 0 mm 7 mps 753 mmHg 85%
    18:00 +10°C° 0 mm 8 mps 753 mmHg 86%
    19:00 +10°C° 0 mm 8 mps 753 mmHg 87%
    20:00 +10°C° 0 mm 8 mps 752 mmHg 88%
    21:00 +10°C° 0 mm 8 mps 752 mmHg 89%
    22:00 +11°C° 0.1 mm 8 mps 752 mmHg 89%
    23:00 +11°C° 0.1 mm 8 mps 751 mmHg 89%

    24 January, Wednesday

    Time Temperature Precipitation Wind Pressure Humidity
    00:00 +11°C° 0.1 mm 8 mps 751 mmHg 89%
    01:00 +11°C° 0.1 mm 8 mps 750 mmHg 88%
    02:00 +11°C° 0.1 mm 8 mps 750 mmHg 87%
    03:00 +11°C° 0.1 mm 9 mps 749 mmHg 86%
    04:00 +11°C° 0.1 mm 9 mps 749 mmHg 84%
    05:00 +11°C° 0.1 mm 9 mps 749 mmHg 83%
    06:00 +11°C° 0.1 mm 10 mps 748 mmHg 81%
    07:00 +11°C° 0 mm 10 mps 748 mmHg 81%
    08:00 +11°C° 0 mm 10 mps 748 mmHg 80%
    09:00 +11°C° 0 mm 10 mps 748 mmHg 80%
    10:00 +12°C° 0 mm 11 mps 747 mmHg 79%
    11:00 +12°C° 0 mm 11 mps 747 mmHg 78%
    12:00 +12°C° 0 mm 12 mps 747 mmHg 76%
    13:00 +12°C° 0.3 mm 12 mps 746 mmHg 77%
    14:00 +12°C° 0.3 mm 12 mps 746 mmHg 78%
    15:00 +10°C° 0.3 mm 12 mps 745 mmHg 79%
    16:00 +9°C° 0.6 mm 10 mps 746 mmHg 80%
    17:00 +10°C° 0.6 mm 9 mps 746 mmHg 82%
    18:00 +9°C° 0.6 mm 7 mps 747 mmHg 84%
    19:00 +8°C° 0.1 mm 7 mps 747 mmHg 83%
    20:00 +7°C° 0.1 mm 6 mps 748 mmHg 83%
    21:00 +7°C° 0.1 mm 5 mps 748 mmHg 83%
    22:00 +6°C° 0 mm 5 mps 749 mmHg 83%
    23:00 +6°C° 0 mm 5 mps 749 mmHg 83%
    Show more